Theta_e
323 324 326 326 327 328 329 332 333 335 336 337 341 343 343 345 346 345 344 342 342 341 340 343 347 349 348 351 351 351 349 345 341
321 324 325 326 328 330 330 332 333 334 338 339 342 343 344 345 345 343 341 341 343 343 344 342 343 347 346 346 350 352 350 348 347
319 322 325 326 328 330 331 333 333 334 339 340 343 344 345 346 345 345 342 339 339 341 343 344 343 345 346 344 347 347 352 353 353
320 322 324 326 328 331 332 334 334 334 338 341 342 344 345 346 345 346 344 341 341 342 342 341 342 343 344 344 345 346 350 353 353
320 324 324 327 329 330 332 333 334 335 338 341 343 345 346 346 348 346 344 343 345 343 340 340 338 340 342 343 344 345 348 352 352
318 322 322 325 328 330 332 334 336 337 340 342 344 346 346 348 348 346 344 343 343 342 339 339 336 336 338 340 343 342 344 351 353
316 320 323 324 328 329 332 336 338 339 340 342 345 346 347 348 348 347 346 345 343 342 340 339 337 337 339 341 342 341 344 349 353
317 318 321 323 326 330 332 334 337 340 341 342 345 347 347 348 350 349 347 344 344 343 341 340 340 336 337 338 338 339 345 352 351
315 317 321 324 326 331 331 333 336 339 340 342 345 347 348 350 352 350 348 346 345 344 343 342 341 339 338 338 340 341 343 349 350
313 315 321 323 325 329 331 333 336 338 341 344 345 346 348 350 351 351 350 349 346 345 343 343 342 342 344 346 350 341 340 345 349
313 315 320 324 326 329 332 335 337 341 343 344 345 346 347 350 351 351 352 350 349 348 346 344 344 345 347 350 352 336 336 342 350
316 319 322 324 328 330 333 335 339 341 343 344 345 345 346 348 351 350 351 350 350 351 350 348 347 349 350 351 353 332 333 342 348
322 325 325 324 328 329 334 338 341 342 342 344 344 345 347 349 350 350 350 351 351 352 353 353 353 352 353 346 352 329 328 341 345
330 327 327 326 328 329 335 340 342 341 342 342 346 347 347 348 350 350 350 351 352 352 351 353 353 353 354 353 350 337 325 330 345
336 333 330 328 326 328 334 341 341 340 341 344 346 346 346 347 349 350 350 350 351 352 352 351 351 351 351 350 345 330 323 325 333
335 333 334 333 327 327 332 339 341 339 342 344 344 345 344 345 349 350 351 350 350 351 353 351 350 349 348 346 342 336 323 321 324
331 331 331 336 329 329 329 336 340 341 342 344 343 343 344 345 346 348 352 353 353 351 352 351 351 349 348 347 340 335 329 328 330
331 333 338 343 334 331 333 335 337 339 341 344 343 344 344 345 346 345 350 352 350 354 356 351 351 351 351 344 340 337 325 325 332
338 341 344 345 343 334 337 339 339 342 346 346 345 344 345 346 349 349 351 339 334 311 314 316 318 322 341 347 330 314 309 308 310
336 345 346 346 346 344 345 345 345 348 348 347 346 345 347 348 347 352 354 345 345 342 328 310 309 310 315 317 322 308 306 305 306
Wind_Speed
10 15 15 18 19 17 18 18 16 15 13 12 12 13 12 9 8 6 5 6 5 6 4 4 2 4 3 2 4 4 4 2 3
11 14 16 18 17 18 18 17 18 17 14 14 13 14 10 9 8 7 7 7 5 4 3 2 4 3 4 3 3 4 4 3 4
9 11 14 14 15 17 17 17 18 16 15 16 14 13 11 9 10 8 7 6 6 6 5 5 4 4 4 3 4 3 3 3 3
10 11 15 16 16 16 17 15 15 15 14 14 12 12 10 10 9 8 7 7 6 5 6 6 6 7 6 6 5 4 3 4 4
9 10 13 14 17 16 15 16 15 16 14 14 14 13 11 11 9 8 8 8 6 6 6 5 6 5 6 7 5 5 4 5 5
8 7 8 11 11 15 17 17 16 15 14 15 12 12 11 10 10 10 10 9 6 7 6 6 6 5 8 8 6 5 5 4 4
8 10 10 10 13 14 16 16 15 14 14 13 12 13 12 12 12 11 10 8 7 7 7 6 6 5 5 3 3 3 3 3 5
7 8 10 13 15 15 15 15 13 12 11 12 13 13 13 13 11 9 8 8 7 6 7 6 5 5 4 4 4 4 5 6 5
9 8 11 12 14 15 15 15 15 14 12 12 13 13 13 11 11 11 11 9 8 6 7 6 5 6 6 6 5 9 9 6 5
11 13 13 13 17 18 17 17 15 16 14 12 14 13 12 12 12 12 11 10 8 8 8 7 8 7 7 7 5 9 6 9 6
9 10 13 12 12 13 15 14 15 11 13 14 14 13 12 12 12 12 11 11 10 8 6 9 8 7 7 5 5 9 9 10 6
11 10 10 14 16 17 13 15 13 13 13 13 13 14 14 13 14 12 12 12 12 10 8 7 8 5 7 8 7 11 11 11 8
8 7 8 9 10 9 12 12 14 14 14 14 15 15 16 14 14 13 14 13 12 9 8 8 6 7 8 10 9 11 12 11 7
6 7 9 10 12 14 14 15 16 16 15 17 18 15 13 13 14 15 14 11 9 10 10 9 8 9 8 8 8 7 13 12 9
4 7 9 10 12 12 13 15 16 16 17 18 13 12 13 13 13 11 9 12 10 10 10 10 9 9 6 5 6 9 11 13 8
3 6 6 6 7 7 9 15 16 17 18 12 13 13 13 13 11 10 9 11 10 8 9 8 8 8 7 6 5 5 10 12 11
4 5 4 2 6 8 9 10 14 16 8 11 15 15 14 12 12 11 10 9 8 8 8 8 7 7 7 6 5 6 6 6 7
4 4 3 2 3 6 8 10 11 8 9 12 13 12 11 11 9 10 8 7 5 9 9 11 10 10 10 9 8 10 11 13 9
3 6 5 4 2 6 7 9 9 9 12 13 12 11 9 9 9 9 8 7 5 8 5 5 12 13 11 9 7 15 18 15 16
9 8 7 6 6 4 4 6 9 10 12 12 12 11 9 7 8 9 9 8 7 7 2 6 3 9 12 12 12 18 20 20 20
Wind_Direction
169 186 191 185 183 181 180 184 185 187 184 193 188 192 196 194 197 187 190 186 192 195 192 185 184 179 172 181 184 185 181 180 195
190 185 185 193 183 180 181 183 185 191 184 193 189 197 186 184 184 178 187 194 191 157 172 158 150 162 164 166 177 207 174 186 204
208 188 189 191 184 184 184 186 186 188 183 187 187 189 184 186 185 186 185 169 193 192 149 148 151 137 170 187 181 193 192 188 224
203 189 186 187 186 186 185 182 183 186 182 182 178 184 184 176 182 178 171 192 189 179 148 151 173 178 190 200 193 182 194 204 218
200 189 177 188 187 173 173 180 186 181 179 183 185 178 175 182 171 165 179 199 194 150 174 157 181 185 192 212 191 179 209 194 196
201 185 175 178 179 178 180 183 185 181 177 188 181 166 171 173 174 175 192 198 175 159 170 183 176 188 207 194 186 188 221 200 229
195 168 169 178 180 187 185 186 184 180 182 179 170 167 172 177 179 183 191 189 176 168 170 185 183 191 199 193 184 212 235 222 222
172 175 173 183 182 186 186 182 183 187 177 170 163 170 173 187 177 173 171 183 187 163 171 184 185 174 178 180 205 228 219 212 196
177 192 192 188 180 185 185 180 180 177 172 165 161 175 178 173 162 170 180 185 194 178 168 175 181 191 186 192 204 205 213 187 156
192 181 187 187 188 186 181 180 177 179 172 158 168 175 171 172 169 176 182 180 183 196 192 172 197 192 187 198 199 204 193 173 160
211 176 192 197 187 184 188 177 181 169 158 166 170 173 172 176 173 179 176 174 185 200 183 194 197 203 194 183 208 187 177 180 154
214 183 187 194 186 178 168 170 166 158 162 167 170 176 180 179 178 177 178 185 186 190 186 193 199 190 190 197 207 180 178 159 154
207 187 157 160 158 139 159 163 156 157 167 170 181 182 188 180 178 179 186 189 188 184 188 198 189 198 199 198 207 176 171 171 157
187 166 147 139 149 167 171 160 160 169 173 186 193 185 178 178 183 186 188 180 177 181 185 185 188 198 208 187 200 170 172 181 170
114 125 141 155 158 165 166 166 166 173 187 193 180 175 177 181 187 186 175 178 181 179 180 188 187 188 201 183 170 165 190 185 160
114 117 112 150 150 156 175 173 177 181 205 170 164 170 178 178 175 182 176 177 181 181 183 189 191 191 197 202 179 179 181 177 170
73 68 75 72 159 171 176 181 194 204 165 163 165 175 181 176 175 174 175 181 182 189 187 189 188 195 203 197 177 180 175 186 190
47 50 80 93 193 200 201 183 193 175 162 161 172 175 171 176 179 179 172 177 184 192 200 193 188 199 194 182 197 207 180 169 183
15 23 21 10 303 238 209 183 169 160 159 165 166 167 168 172 168 171 177 158 148 46 42 230 201 197 191 201 207 155 164 171 151
11 8 13 346 294 260 205 170 162 161 157 158 170 172 170 168 173 172 171 162 176 190 81 73 249 203 195 191 175 170 173 170 166